Wind_Speed
13 13 13 13 12 11 11 11 11 11 11 11 11 11 10 10 10 10 10 11 11 10 11 11 11 11 12 12 12 13 13 13 13 13 13 13 13 13 13 14 15 15 15
14 14 13 13 13 13 13 12 12 12 12 11 12 12 12 11 11 11 12 12 12 12 12 11 11 12 12 12 13 13 13 13 14 14 13 14 14 14 14 15 16 16 16
14 14 14 15 15 15 14 13 13 13 12 12 12 12 12 12 12 13 13 13 13 13 13 13 13 13 13 13 14 14 14 15 15 15 14 15 15 16 16 16 17 17 17
17 16 16 16 16 16 16 15 14 14 14 14 14 13 13 13 13 14 14 14 14 14 14 14 14 14 14 15 15 15 15 15 16 16 16 17 17 17 17 17 18 18 18
20 18 18 17 17 17 17 17 16 16 16 16 15 14 14 14 14 14 15 15 15 15 15 14 14 15 16 16 15 16 16 16 17 17 17 17 17 18 18 19 19 19 19
21 20 20 19 19 18 18 18 18 18 18 17 16 16 16 16 16 16 16 16 16 16 15 15 15 16 17 17 17 17 17 17 17 18 18 18 19 19 19 20 20 20 21
23 22 22 21 20 20 20 20 20 20 20 19 18 18 18 18 18 18 18 18 18 17 16 16 17 17 17 18 18 19 18 18 18 18 18 19 19 19 20 21 21 21 22
24 23 23 22 22 21 21 21 21 21 21 21 21 20 20 19 19 19 20 20 20 18 18 18 18 19 18 18 19 19 19 19 19 19 19 20 20 21 22 22 22 22 22
26 25 24 24 24 23 22 22 22 22 22 22 21 21 21 21 21 21 21 21 20 20 20 21 21 21 20 20 20 20 19 19 20 20 21 21 22 23 23 24 24 23 23
27 27 26 25 25 25 23 23 23 23 24 23 23 23 23 24 23 23 23 22 22 23 24 24 24 23 22 22 21 21 21 21 21 22 22 22 23 24 25 25 26 25 25
28 27 27 27 26 26 25 24 24 24 25 25 25 25 25 25 25 25 25 25 25 25 25 25 26 25 24 24 23 23 23 23 24 24 23 24 24 24 24 25 26 26 26
30 29 29 29 28 27 27 26 26 26 26 26 26 26 26 25 24 25 25 26 26 27 27 26 27 27 26 25 24 24 25 25 24 24 25 25 25 26 26 27 27 26 26
31 31 31 31 30 29 29 28 27 27 27 26 27 27 28 27 26 26 27 27 28 28 28 28 28 28 27 26 26 26 26 26 26 27 27 27 27 27 28 28 28 27 27
33 32 32 32 31 30 29 29 29 28 28 28 28 29 28 28 28 29 29 30 29 29 28 28 28 28 28 28 28 28 28 28 28 28 28 28 28 28 29 29 29 29 29
34 33 32 32 31 31 29 29 29 30 30 30 31 31 31 30 30 30 31 31 31 31 30 29 28 29 29 29 29 29 29 29 29 29 30 30 30 30 30 30 30 30 31
33 33 32 32 32 31 30 30 30 30 31 32 33 33 33 33 32 32 32 32 32 32 31 30 29 29 29 29 29 29 29 30 30 30 31 32 32 31 31 32 31 31 31
34 33 34 33 33 33 32 31 31 31 31 32 32 32 32 33 32 32 32 32 31 31 30 29 30 30 30 30 30 30 30 30 31 31 31 32 32 33 33 32 32 32 31
34 34 34 34 34 34 34 33 33 33 32 32 33 32 32 33 33 32 32 31 30 29 29 29 30 31 32 31 31 31 31 31 32 33 33 33 33 32 32 33 33 33 33
35 35 35 35 36 35 35 35 35 35 34 34 34 34 34 34 34 33 33 32 31 31 30 30 31 32 32 32 32 32 32 32 32 33 34 34 34 33 33 34 34 34 34
35 35 36 37 37 36 36 36 35 35 35 34 34 34 34 34 34 34 34 33 33 33 32 32 32 33 33 32 32 33 33 33 34 35 35 35 36 35 35 35 35 35 34
34 34 35 36 36 36 36 36 36 36 36 36 35 35 36 35 35 34 34 34 34 34 34 34 33 33 33 34 35 35 35 35 34 34 35 36 36 37 37 36 35 35 34
32 33 33 33 33 34 35 36 36 37 37 37 36 35 34 35 34 34 34 34 34 34 34 34 34 35 35 35 36 36 35 35 35 34 34 35 35 36 36 36 35 34 34
32 32 32 32 33 32 33 35 36 37 36 36 36 36 35 35 35 35 34 34 34 34 35 35 36 36 36 36 36 36 35 35 34 34 34 35 36 36 36 35 34 33 33
30 31 31 31 32 32 32 33 33 33 34 34 35 35 36 35 34 34 34 34 35 35 35 36 37 37 36 36 35 35 35 35 35 35 35 35 35 35 34 34 33 33 33
29 30 30 30 30 31 31 31 31 32 33 34 35 34 34 34 33 33 34 35 34 34 35 36 36 36 35 35 35 35 35 35 36 36 36 35 35 35 34 33 33 33 33
25 26 27 28 29 29 29 30 31 32 33 33 34 34 33 33 32 33 34 34 34 35 35 35 35 35 35 35 35 35 35 35 35 34 35 35 34 34 33 33 33 33 33
Wind_Direction
327 329 327 324 321 321 322 320 318 318 316 315 309 307 301 298 299 301 305 306 304 304 306 305 302 301 303 304 306 305 302 300 302 304 303 305 304 302 304 305 306 305 305
320 321 320 320 320 319 317 316 316 315 318 318 313 311 306 302 299 302 302 302 302 303 302 303 304 305 305 307 305 302 301 300 300 300 300 300 302 300 302 303 304 303 304
315 315 314 313 316 315 312 309 310 311 312 312 310 309 306 304 301 302 302 301 303 302 299 298 301 304 305 306 304 303 303 301 299 298 297 299 299 298 299 302 304 302 302
309 308 307 306 306 308 307 304 304 305 306 306 307 307 304 303 300 301 299 300 301 301 298 296 298 299 300 302 304 304 304 303 300 298 297 297 298 297 297 299 302 301 301
305 303 301 300 300 301 302 300 300 300 301 301 301 300 301 303 303 299 299 299 298 298 296 296 297 297 299 300 301 301 301 301 300 300 299 298 299 299 298 296 297 298 300
299 301 298 297 296 297 299 297 296 297 298 298 298 296 296 296 299 298 296 295 296 294 293 295 296 296 298 299 299 300 301 301 301 299 301 300 298 297 297 297 297 298 299
295 295 297 294 291 293 296 296 294 294 294 292 293 295 294 294 296 296 294 293 292 292 294 296 296 296 297 298 298 298 297 297 297 297 298 300 299 296 296 297 297 298 298
292 292 292 293 289 288 290 291 290 289 289 288 289 290 291 292 296 296 294 292 290 292 294 294 294 296 296 299 300 299 296 295 294 294 295 297 296 296 295 294 295 296 297
287 288 288 288 288 287 286 287 287 287 286 285 286 287 289 291 293 294 294 291 290 291 292 291 292 292 294 296 297 297 295 293 293 293 293 294 295 294 295 294 295 295 294
285 284 284 284 284 284 284 284 284 284 284 284 284 284 286 287 289 290 289 289 288 288 290 290 291 291 291 293 294 294 294 292 292 292 292 294 295 294 294 295 296 295 294
284 283 282 281 282 281 281 283 284 284 284 284 283 282 282 284 285 287 286 286 287 286 287 288 289 288 289 291 291 293 293 291 291 292 292 293 294 294 295 296 297 295 294
282 282 282 282 282 279 278 279 281 283 284 284 283 282 282 283 285 286 286 287 287 286 286 286 287 287 287 288 290 293 292 291 291 291 292 293 293 294 294 294 295 296 295
281 282 282 283 281 279 278 276 277 279 281 283 285 285 285 284 284 285 284 284 285 285 285 284 284 284 285 285 288 290 291 290 291 293 293 293 292 292 293 293 293 293 293
279 280 280 280 280 280 276 275 276 278 280 282 283 284 285 283 281 283 284 283 284 283 282 282 283 284 285 285 286 286 287 289 291 293 293 294 293 293 293 293 292 292 292
279 278 279 279 279 279 279 277 277 278 279 280 281 282 283 282 281 281 282 282 281 280 281 283 284 284 284 285 286 286 286 287 288 290 291 292 292 292 292 294 293 291 290
278 277 278 279 279 278 277 276 276 276 278 279 279 280 281 283 282 281 281 281 280 280 281 284 285 284 282 282 282 284 284 284 285 287 289 290 290 290 290 291 293 291 291
277 278 277 278 279 279 278 277 277 277 278 278 279 280 281 281 282 282 282 282 281 282 283 284 283 284 284 283 283 283 284 284 284 285 288 290 290 289 288 289 290 290 290
275 276 277 278 278 279 279 279 278 278 279 279 279 279 279 279 280 282 283 283 283 284 284 283 283 284 283 283 284 283 283 284 285 286 286 287 288 289 289 288 288 289 289
274 274 274 275 276 278 279 281 280 280 280 279 278 278 278 278 279 280 283 283 282 281 281 281 282 283 283 284 285 285 284 284 285 286 285 285 285 286 286 287 287 288 288
274 274 274 274 275 276 277 279 280 280 279 280 280 279 279 279 280 282 282 282 281 280 280 281 282 283 284 284 285 286 286 285 286 285 285 285 286 286 286 286 287 288 289
274 274 274 274 275 276 277 278 278 278 278 279 280 281 280 280 281 281 281 281 282 281 280 281 283 285 285 285 285 285 287 288 287 286 285 286 286 286 287 286 286 288 289
273 275 275 276 276 277 277 278 279 279 278 279 281 283 280 280 281 281 280 280 280 280 280 281 282 283 284 285 286 286 286 286 287 287 286 287 288 288 288 287 287 287 287
274 275 276 277 277 277 278 278 279 280 279 280 282 283 281 280 279 279 280 281 281 282 281 281 282 282 283 283 283 284 284 286 287 288 288 288 288 288 288 288 287 287 286
275 275 277 278 278 278 277 276 279 281 280 281 282 283 282 281 280 280 282 283 281 281 281 281 281 281 281 281 282 283 285 285 286 287 287 288 288 289 288 287 287 287 286
276 276 277 279 279 279 279 279 280 283 283 282 281 282 284 285 285 285 285 284 283 282 282 281 281 281 281 283 284 285 285 286 286 286 286 286 286 286 286 286 286 287 287
280 280 279 280 280 280 280 281 284 285 284 282 282 282 282 284 285 286 286 285 283 282 283 283 283 282 283 285 285 284 284 284 285 285 286 286 285 285 286 286 286 286 286
Height
5894 5892 5890 5889 5887 5886 5885 5883 5882 5880 5879 5878 5877 5875 5875 5875 5875 5874 5874 5873 5872 5871 5871 5870 5869 5868 5867 5866 5865 5864 5863 5863 5863 5862 5861 5860 5859 5858 5857 5856 5855 5854 5853
5892 5890 5889 5887 5885 5884 5883 5881 5880 5879 5878 5876 5875 5874 5873 5873 5872 5872 5871 5870 5870 5869 5868 5867 5866 5865 5864 5863 5862 5861 5860 5859 5859 5858 5857 5856 5856 5855 5854 5853 5851 5850 5849
5890 5888 5887 5885 5884 5882 5880 5879 5878 5877 5876 5875 5873 5872 5871 5870 5870 5869 5869 5868 5867 5866 5865 5864 5863 5862 5861 5860 5858 5857 5856 5855 5855 5854 5853 5852 5851 5850 5849 5848 5847 5846 5845
5887 5885 5884 5883 5881 5880 5878 5877 5875 5874 5873 5872 5871 5870 5868 5868 5867 5866 5865 5864 5864 5863 5862 5861 5860 5859 5858 5856 5855 5853 5852 5852 5851 5850 5849 5848 5847 5846 5845 5844 5842 5841 5840
5883 5882 5881 5879 5878 5876 5875 5874 5872 5871 5870 5868 5867 5866 5866 5864 5863 5863 5862 5861 5860 5859 5858 5857 5856 5855 5854 5852 5851 5850 5849 5847 5846 5845 5845 5844 5842 5841 5840 5839 5837 5836 5834
5879 5878 5876 5875 5874 5873 5871 5870 5869 5868 5867 5865 5864 5863 5862 5861 5860 5859 5857 5857 5856 5855 5854 5853 5852 5851 5850 5848 5847 5846 5844 5843 5842 5841 5840 5839 5837 5836 5835 5833 5832 5831 5829
5875 5873 5872 5870 5869 5868 5867 5865 5864 5863 5862 5861 5860 5859 5858 5857 5855 5854 5853 5852 5851 5851 5850 5849 5848 5847 5845 5844 5843 5841 5839 5838 5837 5836 5835 5833 5832 5831 5830 5828 5826 5825 5824
5869 5868 5866 5865 5863 5862 5861 5860 5859 5858 5857 5856 5855 5854 5853 5852 5851 5849 5848 5847 5846 5846 5845 5844 5843 5842 5841 5839 5838 5836 5834 5833 5831 5830 5829 5827 5826 5824 5823 5822 5820 5819 5818
5862 5861 5860 5859 5858 5856 5856 5854 5853 5852 5851 5850 5849 5848 5847 5847 5845 5844 5843 5842 5841 5841 5840 5839 5838 5836 5835 5834 5832 5830 5828 5827 5825 5824 5823 5821 5820 5818 5817 5815 5814 5813 5811
5855 5854 5853 5852 5851 5850 5849 5848 5847 5846 5845 5844 5843 5842 5841 5840 5839 5838 5837 5836 5835 5835 5834 5833 5832 5830 5829 5827 5825 5824 5822 5821 5819 5818 5816 5815 5813 5812 5810 5809 5807 5806 5804
5848 5847 5845 5844 5843 5843 5842 5841 5840 5839 5838 5837 5837 5836 5835 5834 5833 5832 5831 5830 5829 5828 5827 5826 5825 5823 5822 5821 5819 5817 5816 5814 5813 5811 5809 5808 5807 5806 5804 5802 5800 5798 5797
5840 5838 5837 5837 5836 5835 5834 5833 5833 5832 5831 5830 5829 5828 5827 5826 5826 5825 5824 5822 5821 5820 5819 5819 5817 5816 5815 5814 5812 5810 5808 5807 5805 5804 5803 5802 5800 5799 5797 5795 5793 5790 5788
5832 5830 5829 5829 5827 5827 5826 5825 5824 5824 5823 5822 5821 5820 5819 5818 5818 5817 5815 5814 5813 5812 5811 5810 5809 5808 5807 5806 5804 5802 5801 5799 5798 5797 5795 5794 5792 5791 5789 5787 5785 5783 5781
5823 5822 5820 5819 5818 5817 5816 5816 5816 5815 5815 5814 5813 5812 5810 5810 5809 5808 5807 5806 5804 5803 5803 5802 5800 5799 5798 5797 5796 5795 5793 5792 5790 5789 5787 5786 5784 5782 5781 5779 5777 5775 5773
5812 5812 5811 5810 5809 5809 5808 5807 5807 5807 5806 5806 5805 5803 5802 5801 5800 5800 5798 5797 5795 5794 5794 5793 5792 5790 5790 5788 5787 5786 5785 5783 5782 5780 5779 5777 5775 5774 5772 5770 5768 5767 5764
5802 5802 5801 5801 5800 5799 5798 5798 5798 5797 5797 5796 5795 5794 5793 5792 5791 5790 5789 5788 5786 5785 5784 5783 5783 5781 5780 5779 5778 5777 5776 5774 5773 5772 5770 5768 5767 5765 5763 5761 5759 5757 5755
5793 5792 5791 5791 5791 5790 5789 5789 5789 5788 5787 5786 5785 5784 5784 5782 5782 5781 5779 5778 5777 5776 5775 5774 5773 5773 5771 5770 5768 5767 5766 5765 5764 5762 5761 5759 5757 5756 5754 5752 5750 5748 5746
5783 5783 5782 5781 5781 5780 5779 5779 5779 5778 5777 5777 5776 5775 5774 5773 5772 5771 5770 5769 5768 5767 5766 5765 5764 5763 5762 5760 5759 5757 5756 5755 5754 5752 5750 5749 5747 5746 5744 5742 5741 5739 5737
5773 5773 5773 5772 5771 5771 5770 5769 5769 5768 5767 5766 5765 5765 5764 5763 5762 5761 5760 5759 5758 5757 5756 5755 5754 5753 5752 5750 5749 5747 5746 5745 5743 5742 5740 5738 5737 5735 5734 5732 5731 5729 5726
5764 5763 5763 5762 5761 5761 5760 5759 5758 5757 5756 5756 5755 5754 5753 5752 5751 5750 5750 5749 5748 5747 5746 5745 5744 5743 5741 5740 5738 5737 5736 5734 5732 5731 5729 5728 5726 5724 5723 5722 5720 5718 5716
5753 5753 5752 5752 5751 5751 5750 5749 5748 5746 5745 5745 5744 5743 5742 5741 5740 5739 5738 5738 5737 5736 5735 5734 5734 5733 5731 5730 5728 5726 5725 5723 5722 5720 5718 5717 5715 5713 5711 5710 5709 5707 5706
5743 5743 5742 5742 5741 5741 5740 5738 5737 5735 5735 5734 5733 5732 5731 5730 5729 5728 5727 5727 5726 5725 5724 5723 5722 5722 5720 5719 5718 5716 5714 5713 5711 5709 5707 5706 5704 5702 5700 5699 5698 5697 5695
5734 5733 5733 5732 5732 5731 5730 5729 5727 5726 5724 5723 5722 5721 5720 5719 5718 5717 5716 5715 5715 5714 5712 5712 5711 5710 5709 5707 5706 5705 5703 5702 5700 5698 5697 5695 5693 5692 5690 5688 5687 5686 5685
5724 5724 5723 5723 5722 5721 5720 5719 5718 5716 5714 5713 5711 5710 5709 5707 5706 5706 5705 5704 5703 5703 5702 5700 5699 5698 5697 5695 5694 5693 5692 5691 5689 5687 5686 5684 5683 5681 5679 5677 5676 5675 5674
5715 5715 5714 5713 5713 5712 5711 5710 5709 5707 5705 5703 5701 5700 5699 5697 5695 5695 5694 5694 5693 5692 5690 5689 5688 5686 5685 5684 5683 5682 5681 5679 5678 5676 5674 5673 5671 5670 5668 5667 5665 5664 5663
5707 5706 5706 5705 5704 5703 5702 5701 5699 5698 5695 5693 5691 5690 5689 5687 5685 5684 5683 5682 5681 5680 5679 5678 5677 5675 5674 5673 5672 5671 5669 5667 5666 5664 5663 5661 5660 5658 5657 5656 5654 5653 5652